Tracking 19644 objects as of 25-Apr-2019
HD Live streaming from Space Station
objects crossing your sky now

THOR ALTAIR DEB

Track THOR ALTAIR DEB now!
10-day predictions


NORAD ID: 2177
Int'l Code: 1966-026D
Perigee: 569.3 km
Apogee: 803.3 km
Inclination: 98.9 °
Period: 98.3 minutes
Semi major axis: 7057 km
RCS: 0.043 m2 (small)
Launch date: March 31, 1966
Source: United States (US)
Launch site: AIR FORCE WESTERN TEST RANGE (AFWTR)

Note: This is SATELLITE DEBRIS
aabbcc
Your satellite tracking list
Your tracking list is empty




NASA's NSSDC Master Catalog

Two Line Element Set (TLE):
1  2177U 66026D   19114.16949144  .00000233  00000-0  46540-4 0  9992
2  2177  98.9365 181.2617 0165780 156.9097 203.9665 14.64356213780077
Source of the keplerian elements: AFSPC